Time,TemperatureF,DewpointF,PressureIn,WindDirection,WindDirectionDegrees,WindSpeedMPH,WindSpeedGustMPH,Humidity,HourlyPrecipIn,Conditions,Clouds,dailyrainin,SoftwareType,DateUTC
2013-12-24 00:01:00,47.1,43.7,30.10,North,356,0.0,0.0,88,0.00,,,0.02,WUHU216DAVISVP2,2013-12-24 05:01:00,
2013-12-24 00:06:00,47.0,43.3,30.10,NNW,332,0.0,0.0,87,0.00,,,0.02,WUHU216DAVISVP2,2013-12-24 05:06:00,
2013-12-24 00:11:00,46.8,43.1,30.11,NNW,333,0.0,0.0,87,0.00,,,0.02,WUHU216DAVISVP2,2013-12-24 05:11:00,
2013-12-24 00:16:00,46.8,43.1,30.11,NNW,333,0.0,0.0,87,0.00,,,0.02,WUHU216DAVISVP2,2013-12-24 05:16:00,
2013-12-24 00:21:00,46.7,43.0,30.11,NNW,333,0.0,0.0,87,0.00,,,0.02,WUHU216DAVISVP2,2013-12-24 05:21:00,
2013-12-24 00:26:00,46.5,42.8,30.12,NW,319,0.0,0.0,87,0.00,,,0.02,WUHU216DAVISVP2,2013-12-24 05:26:00,
2013-12-24 00:31:00,46.4,42.4,30.12,NE,54,0.0,0.0,86,0.00,,,0.02,WUHU216DAVISVP2,2013-12-24 05:31:00,
2013-12-24 00:36:00,46.2,42.2,30.12,NNW,337,0.0,0.0,86,0.00,,,0.02,WUHU216DAVISVP2,2013-12-24 05:36:00,
2013-12-24 00:41:00,46.2,41.9,30.11,NNW,340,0.0,0.0,85,0.00,,,0.02,WUHU216DAVISVP2,2013-12-24 05:41:00,
2013-12-24 00:46:00,46.1,41.8,30.11,WNW,294,0.0,0.0,85,0.00,,,0.02,WUHU216DAVISVP2,2013-12-24 05:46:00,
2013-12-24 00:51:00,46.1,41.8,30.11,NW,316,0.0,0.0,85,0.00,,,0.02,WUHU216DAVISVP2,2013-12-24 05:51:00,
2013-12-24 00:56:00,46.0,41.7,30.10,North,0,0.0,0.0,85,0.00,,,0.02,WUHU216DAVISVP2,2013-12-24 05:56:00,
2013-12-24 01:01:00,46.0,41.7,30.10,North,6,0.0,0.0,85,0.00,,,0.02,WUHU216DAVISVP2,2013-12-24 06:01:00,
2013-12-24 01:06:00,46.0,41.7,30.10,North,0,0.0,0.0,85,0.00,,,0.02,WUHU216DAVISVP2,2013-12-24 06:06:00,
2013-12-24 01:11:00,46.0,41.7,30.10,North,11,0.0,0.0,85,0.00,,,0.02,WUHU216DAVISVP2,2013-12-24 06:11:00,
2013-12-24 01:16:00,46.0,41.7,30.10,North,0,0.0,0.0,85,0.00,,,0.02,WUHU216DAVISVP2,2013-12-24 06:16:00,
2013-12-24 01:21:00,46.0,41.7,30.10,North,0,0.0,0.0,85,0.00,,,0.02,WUHU216DAVISVP2,2013-12-24 06:21:00,
2013-12-24 01:26:00,46.0,41.7,30.10,NNW,339,0.0,0.0,85,0.00,,,0.02,WUHU216DAVISVP2,2013-12-24 06:26:00,
2013-12-24 01:31:00,45.8,41.8,30.10,North,10,0.0,0.0,86,0.00,,,0.02,WUHU216DAVISVP2,2013-12-24 06:31:00,
2013-12-24 01:36:00,45.8,41.8,30.10,NW,309,0.0,0.0,86,0.00,,,0.02,WUHU216DAVISVP2,2013-12-24 06:36:00,
2013-12-24 01:41:00,45.8,42.1,30.11,NNW,339,0.0,0.0,87,0.00,,,0.02,WUHU216DAVISVP2,2013-12-24 06:41:00,
2013-12-24 01:47:00,45.8,42.4,30.11,North,357,0.0,0.0,88,0.00,,,0.02,WUHU216DAVISVP2,2013-12-24 06:47:00,
2013-12-24 01:52:00,45.8,42.4,30.11,NNW,340,0.0,0.0,88,0.00,,,0.02,WUHU216DAVISVP2,2013-12-24 06:52:00,
2013-12-24 01:57:00,45.8,42.4,30.11,NNW,342,0.0,0.0,88,0.00,,,0.02,WUHU216DAVISVP2,2013-12-24 06:57:00,
2013-12-24 02:02:00,46.0,42.6,30.11,NNW,342,0.0,0.0,88,0.00,,,0.02,WUHU216DAVISVP2,2013-12-24 07:02:00,
2013-12-24 02:07:00,46.1,42.7,30.11,North,359,0.0,0.0,88,0.00,,,0.02,WUHU216DAVISVP2,2013-12-24 07:07:00,
2013-12-24 02:12:00,46.4,43.3,30.11,North,0,0.0,0.0,89,0.01,,,0.03,WUHU216DAVISVP2,2013-12-24 07:12:00,
2013-12-24 02:17:00,46.5,43.4,30.11,NNW,340,0.0,0.0,89,0.01,,,0.03,WUHU216DAVISVP2,2013-12-24 07:17:00,
2013-12-24 02:22:00,46.7,43.6,30.11,NNW,342,0.0,0.0,89,0.01,,,0.03,WUHU216DAVISVP2,2013-12-24 07:22:00,
2013-12-24 02:27:00,46.8,44.0,30.12,NNW,342,0.0,0.0,90,0.01,,,0.03,WUHU216DAVISVP2,2013-12-24 07:27:00,
2013-12-24 02:32:00,47.1,44.3,30.12,NNW,342,0.0,0.0,90,0.01,,,0.03,WUHU216DAVISVP2,2013-12-24 07:32:00,
2013-12-24 02:37:00,47.4,44.6,30.12,NE,56,0.0,0.0,90,0.01,,,0.03,WUHU216DAVISVP2,2013-12-24 07:37:00,
2013-12-24 02:42:00,47.7,44.9,30.12,NE,47,0.0,0.0,90,0.01,,,0.03,WUHU216DAVISVP2,2013-12-24 07:42:00,
2013-12-24 02:47:00,47.4,44.6,30.12,ENE,75,0.0,0.0,90,0.01,,,0.03,WUHU216DAVISVP2,2013-12-24 07:47:00,
2013-12-24 02:52:00,47.3,44.5,30.12,North,354,0.0,0.0,90,0.01,,,0.03,WUHU216DAVISVP2,2013-12-24 07:52:00,
2013-12-24 02:57:00,47.3,44.5,30.13,NNE,16,0.0,0.0,90,0.01,,,0.03,WUHU216DAVISVP2,2013-12-24 07:57:00,
2013-12-24 03:02:00,47.3,44.5,30.13,ENE,75,0.0,0.0,90,0.01,,,0.03,WUHU216DAVISVP2,2013-12-24 08:02:00,
2013-12-24 03:07:00,47.4,44.6,30.13,ENE,75,0.0,0.0,90,0.01,,,0.03,WUHU216DAVISVP2,2013-12-24 08:07:00,
2013-12-24 03:12:00,47.3,44.5,30.12,ENE,75,0.0,0.0,90,0.00,,,0.03,WUHU216DAVISVP2,2013-12-24 08:12:00,
2013-12-24 03:17:00,47.4,44.6,30.12,ENE,71,0.0,0.0,90,0.00,,,0.03,WUHU216DAVISVP2,2013-12-24 08:17:00,
2013-12-24 03:22:00,47.1,44.3,30.12,NNE,14,0.0,0.0,90,0.00,,,0.03,WUHU216DAVISVP2,2013-12-24 08:22:00,
2013-12-24 03:27:00,46.5,43.7,30.13,North,0,0.0,0.0,90,0.00,,,0.03,WUHU216DAVISVP2,2013-12-24 08:27:00,
2013-12-24 03:33:00,46.1,43.3,30.13,North,352,0.0,0.0,90,0.00,,,0.03,WUHU216DAVISVP2,2013-12-24 08:33:00,
2013-12-24 03:38:00,45.7,42.6,30.13,North,0,0.0,0.0,89,0.00,,,0.03,WUHU216DAVISVP2,2013-12-24 08:38:00,
2013-12-24 03:43:00,44.9,41.8,30.13,North,0,0.0,0.0,89,0.00,,,0.03,WUHU216DAVISVP2,2013-12-24 08:43:00,
2013-12-24 03:48:00,44.6,41.5,30.13,North,1,0.0,0.0,89,0.00,,,0.03,WUHU216DAVISVP2,2013-12-24 08:48:00,
2013-12-24 03:53:00,44.2,41.1,30.13,NNW,347,0.0,0.0,89,0.00,,,0.03,WUHU216DAVISVP2,2013-12-24 08:53:00,
2013-12-24 03:58:00,43.6,40.2,30.13,NNW,337,0.0,0.0,88,0.00,,,0.03,WUHU216DAVISVP2,2013-12-24 08:58:00,
2013-12-24 04:03:00,43.2,39.9,30.13,North,0,0.0,0.0,88,0.00,,,0.03,WUHU216DAVISVP2,2013-12-24 09:03:00,
2013-12-24 04:08:00,43.2,39.9,30.13,NNW,332,0.0,0.0,88,0.00,,,0.03,WUHU216DAVISVP2,2013-12-24 09:08:00,
2013-12-24 04:13:00,43.1,39.8,30.13,NNW,332,0.0,0.0,88,0.00,,,0.03,WUHU216DAVISVP2,2013-12-24 09:13:00,
2013-12-24 04:18:00,42.8,39.2,30.13,North,3,0.0,0.0,87,0.00,,,0.03,WUHU216DAVISVP2,2013-12-24 09:18:00,
2013-12-24 04:23:00,42.6,39.0,30.13,North,356,0.0,0.0,87,0.00,,,0.03,WUHU216DAVISVP2,2013-12-24 09:23:00,
2013-12-24 04:28:00,42.5,38.6,30.12,North,357,0.0,0.0,86,0.00,,,0.03,WUHU216DAVISVP2,2013-12-24 09:28:00,
2013-12-24 04:33:00,42.5,38.6,30.12,NNW,329,0.0,0.0,86,0.00,,,0.03,WUHU216DAVISVP2,2013-12-24 09:33:00,
2013-12-24 04:38:00,42.5,38.6,30.12,North,0,0.0,0.0,86,0.00,,,0.03,WUHU216DAVISVP2,2013-12-24 09:38:00,
2013-12-24 04:43:00,42.3,38.4,30.12,North,6,0.0,0.0,86,0.00,,,0.03,WUHU216DAVISVP2,2013-12-24 09:43:00,
2013-12-24 04:48:00,42.5,38.6,30.12,NE,37,0.0,0.0,86,0.00,,,0.03,WUHU216DAVISVP2,2013-12-24 09:48:00,
2013-12-24 04:53:00,42.3,38.4,30.12,North,0,0.0,0.0,86,0.00,,,0.03,WUHU216DAVISVP2,2013-12-24 09:53:00,
2013-12-24 04:58:00,42.3,38.1,30.12,North,0,0.0,0.0,85,0.00,,,0.03,WUHU216DAVISVP2,2013-12-24 09:58:00,
2013-12-24 05:03:00,42.3,38.1,30.12,North,0,0.0,0.0,85,0.00,,,0.03,WUHU216DAVISVP2,2013-12-24 10:03:00,
2013-12-24 05:08:00,42.3,38.1,30.12,North,0,0.0,0.0,85,0.00,,,0.03,WUHU216DAVISVP2,2013-12-24 10:08:00,
2013-12-24 05:13:00,42.3,38.1,30.12,WNW,302,0.0,0.0,85,0.00,,,0.03,WUHU216DAVISVP2,2013-12-24 10:13:00,
2013-12-24 05:18:00,42.3,38.1,30.12,North,0,0.0,0.0,85,0.00,,,0.03,WUHU216DAVISVP2,2013-12-24 10:18:00,
2013-12-24 05:23:00,42.2,38.0,30.12,NNW,342,0.0,0.0,85,0.00,,,0.03,WUHU216DAVISVP2,2013-12-24 10:23:00,
2013-12-24 05:28:00,41.9,37.7,30.14,North,350,0.0,0.0,85,0.00,,,0.03,WUHU216DAVISVP2,2013-12-24 10:28:00,
2013-12-24 05:33:00,41.9,37.7,30.14,NNE,13,0.0,0.0,85,0.00,,,0.03,WUHU216DAVISVP2,2013-12-24 10:33:00,
2013-12-24 05:38:00,41.5,37.0,30.14,North,3,0.0,0.0,84,0.00,,,0.03,WUHU216DAVISVP2,2013-12-24 10:38:00,
2013-12-24 05:43:00,41.3,36.8,30.14,East,97,0.0,0.0,84,0.00,,,0.03,WUHU216DAVISVP2,2013-12-24 10:43:00,
2013-12-24 05:48:00,41.2,36.7,30.14,North,0,0.0,0.0,84,0.00,,,0.03,WUHU216DAVISVP2,2013-12-24 10:48:00,
2013-12-24 05:53:00,41.1,36.6,30.14,WNW,299,0.0,0.0,84,0.00,,,0.03,WUHU216DAVISVP2,2013-12-24 10:53:00,
2013-12-24 05:59:00,40.9,36.1,30.15,North,1,0.0,0.0,83,0.00,,,0.03,WUHU216DAVISVP2,2013-12-24 10:59:00,
2013-12-24 06:04:00,40.8,36.0,30.15,North,354,0.0,0.0,83,0.00,,,0.03,WUHU216DAVISVP2,2013-12-24 11:04:00,
2013-12-24 06:09:00,40.8,36.0,30.15,NW,322,0.0,0.0,83,0.00,,,0.03,WUHU216DAVISVP2,2013-12-24 11:09:00,
2013-12-24 06:14:00,40.5,35.4,30.16,NE,35,0.0,0.0,82,0.00,,,0.03,WUHU216DAVISVP2,2013-12-24 11:14:00,
2013-12-24 06:19:00,40.5,35.4,30.16,NW,326,0.0,0.0,82,0.00,,,0.03,WUHU216DAVISVP2,2013-12-24 11:19:00,
2013-12-24 06:24:00,40.3,34.9,30.16,NNW,342,0.0,0.0,81,0.00,,,0.03,WUHU216DAVISVP2,2013-12-24 11:24:00,
2013-12-24 06:29:00,40.2,34.8,30.17,North,0,0.0,0.0,81,0.00,,,0.03,WUHU216DAVISVP2,2013-12-24 11:29:00,
2013-12-24 06:34:00,39.9,34.2,30.17,North,4,0.0,0.0,80,0.00,,,0.03,WUHU216DAVISVP2,2013-12-24 11:34:00,
2013-12-24 06:39:00,39.8,34.2,30.17,NNW,347,0.0,0.0,80,0.00,,,0.03,WUHU216DAVISVP2,2013-12-24 11:39:00,
2013-12-24 06:44:00,39.5,33.9,30.17,NNE,21,0.0,0.0,80,0.00,,,0.03,WUHU216DAVISVP2,2013-12-24 11:44:00,
2013-12-24 06:49:00,39.3,34.0,30.17,NNE,21,0.0,0.0,81,0.00,,,0.03,WUHU216DAVISVP2,2013-12-24 11:49:00,
2013-12-24 06:54:00,39.2,33.9,30.17,North,4,0.0,0.0,81,0.00,,,0.03,WUHU216DAVISVP2,2013-12-24 11:54:00,
2013-12-24 06:59:00,38.9,33.6,30.18,NNW,342,0.0,0.0,81,0.00,,,0.03,WUHU216DAVISVP2,2013-12-24 11:59:00,
2013-12-24 07:04:00,38.9,33.6,30.18,NNW,342,0.0,0.0,81,0.00,,,0.03,WUHU216DAVISVP2,2013-12-24 12:04:00,
2013-12-24 07:09:00,38.8,33.2,30.18,NW,326,0.0,0.0,80,0.00,,,0.03,WUHU216DAVISVP2,2013-12-24 12:09:00,
2013-12-24 07:14:00,38.8,33.2,30.19,NW,326,0.0,0.0,80,0.00,,,0.03,WUHU216DAVISVP2,2013-12-24 12:14:00,
2013-12-24 07:19:00,38.5,32.9,30.19,NNW,336,0.0,0.0,80,0.00,,,0.03,WUHU216DAVISVP2,2013-12-24 12:19:00,
2013-12-24 07:24:00,38.5,32.9,30.19,North,357,0.0,0.0,80,0.00,,,0.03,WUHU216DAVISVP2,2013-12-24 12:24:00,
2013-12-24 07:29:00,38.5,33.2,30.19,North,357,0.0,0.0,81,0.00,,,0.03,WUHU216DAVISVP2,2013-12-24 12:29:00,
2013-12-24 07:34:00,38.3,33.0,30.19,NNW,347,0.0,0.0,81,0.00,,,0.03,WUHU216DAVISVP2,2013-12-24 12:34:00,
2013-12-24 07:39:00,38.2,32.9,30.19,NNW,328,0.0,0.0,81,0.00,,,0.03,WUHU216DAVISVP2,2013-12-24 12:39:00,
2013-12-24 07:44:00,38.0,32.4,30.19,North,0,0.0,0.0,80,0.00,,,0.03,WUHU216DAVISVP2,2013-12-24 12:44:00,
2013-12-24 07:49:00,38.0,32.4,30.19,West,265,0.0,0.0,80,0.00,,,0.03,WUHU216DAVISVP2,2013-12-24 12:49:00,
2013-12-24 07:54:00,38.0,32.4,30.19,NNW,330,0.0,0.0,80,0.00,,,0.03,WUHU216DAVISVP2,2013-12-24 12:54:00,
2013-12-24 07:59:00,38.0,32.4,30.21,NNW,340,0.0,0.0,80,0.00,,,0.03,WUHU216DAVISVP2,2013-12-24 12:59:00,
2013-12-24 08:04:00,38.0,32.4,30.21,NW,316,0.0,0.0,80,0.00,,,0.03,WUHU216DAVISVP2,2013-12-24 13:04:00,
2013-12-24 08:09:00,38.0,32.4,30.21,North,356,0.0,0.0,80,0.00,,,0.03,WUHU216DAVISVP2,2013-12-24 13:09:00,
2013-12-24 08:14:00,38.3,32.7,30.22,NNW,346,0.0,0.0,80,0.00,,,0.03,WUHU216DAVISVP2,2013-12-24 13:14:00,
2013-12-24 08:19:00,38.3,32.7,30.22,NW,316,0.0,0.0,80,0.00,,,0.03,WUHU216DAVISVP2,2013-12-24 13:19:00,
2013-12-24 08:24:00,38.3,32.7,30.22,North,353,0.0,0.0,80,0.00,,,0.03,WUHU216DAVISVP2,2013-12-24 13:24:00,
2013-12-24 08:29:00,38.5,32.9,30.22,NW,323,0.0,0.0,80,0.00,,,0.03,WUHU216DAVISVP2,2013-12-24 13:29:00,
2013-12-24 08:35:00,38.5,32.9,30.22,NNW,346,0.0,0.0,80,0.00,,,0.03,WUHU216DAVISVP2,2013-12-24 13:35:00,
2013-12-24 08:40:00,38.5,32.6,30.22,NNW,344,0.0,0.0,79,0.00,,,0.03,WUHU216DAVISVP2,2013-12-24 13:40:00,
2013-12-24 08:45:00,38.5,32.6,30.23,NNW,335,0.0,0.0,79,0.00,,,0.03,WUHU216DAVISVP2,2013-12-24 13:45:00,
2013-12-24 08:50:00,38.5,32.6,30.23,North,354,0.0,0.0,79,0.00,,,0.03,WUHU216DAVISVP2,2013-12-24 13:50:00,
2013-12-24 08:55:00,38.5,32.6,30.23,NW,318,0.0,0.0,79,0.00,,,0.03,WUHU216DAVISVP2,2013-12-24 13:55:00,
2013-12-24 09:00:00,38.8,32.9,30.24,NW,309,0.0,0.0,79,0.00,,,0.03,WUHU216DAVISVP2,2013-12-24 14:00:00,
2013-12-24 09:05:00,38.8,32.9,30.24,North,356,0.0,0.0,79,0.00,,,0.03,WUHU216DAVISVP2,2013-12-24 14:05:00,
2013-12-24 09:10:00,38.9,33.0,30.24,NNW,333,0.0,0.0,79,0.00,,,0.03,WUHU216DAVISVP2,2013-12-24 14:10:00,
2013-12-24 09:15:00,38.9,32.7,30.24,NNE,17,0.0,0.0,78,0.00,,,0.03,WUHU216DAVISVP2,2013-12-24 14:15:00,
2013-12-24 09:20:00,38.9,32.3,30.24,ESE,106,0.0,0.0,77,0.00,,,0.03,WUHU216DAVISVP2,2013-12-24 14:20:00,
2013-12-24 09:25:00,38.9,32.3,30.24,NNW,339,0.0,0.0,77,0.00,,,0.03,WUHU216DAVISVP2,2013-12-24 14:25:00,
2013-12-24 09:30:00,38.9,32.3,30.24,North,352,0.0,0.0,77,0.00,,,0.03,WUHU216DAVISVP2,2013-12-24 14:30:00,
2013-12-24 09:35:00,39.2,32.6,30.24,NNE,24,0.0,0.0,77,0.00,,,0.03,WUHU216DAVISVP2,2013-12-24 14:35:00,
2013-12-24 09:40:00,39.3,32.7,30.24,North,11,0.0,0.0,77,0.00,,,0.03,WUHU216DAVISVP2,2013-12-24 14:40:00,
2013-12-24 09:45:00,39.3,32.7,30.24,ENE,65,0.0,0.0,77,0.00,,,0.03,WUHU216DAVISVP2,2013-12-24 14:45:00,
2013-12-24 09:50:00,39.6,33.0,30.24,NNW,328,0.0,0.0,77,0.00,,,0.03,WUHU216DAVISVP2,2013-12-24 14:50:00,
2013-12-24 09:55:00,39.6,32.7,30.24,NE,41,0.0,0.0,76,0.00,,,0.03,WUHU216DAVISVP2,2013-12-24 14:55:00,
2013-12-24 10:00:00,39.9,33.0,30.24,ENE,75,0.0,0.0,76,0.00,,,0.03,WUHU216DAVISVP2,2013-12-24 15:00:00,
2013-12-24 10:05:00,39.9,33.0,30.24,NE,55,0.0,0.0,76,0.00,,,0.03,WUHU216DAVISVP2,2013-12-24 15:05:00,
2013-12-24 10:10:00,39.9,33.0,30.24,NNW,328,0.0,0.0,76,0.00,,,0.03,WUHU216DAVISVP2,2013-12-24 15:10:00,
2013-12-24 10:15:00,40.1,33.2,30.24,NNW,346,0.0,0.0,76,0.00,,,0.03,WUHU216DAVISVP2,2013-12-24 15:15:00,
2013-12-24 10:20:00,40.3,33.4,30.24,North,0,0.0,0.0,76,0.00,,,0.03,WUHU216DAVISVP2,2013-12-24 15:20:00,
2013-12-24 10:25:00,40.6,33.4,30.25,NNW,337,0.0,0.0,75,0.00,,,0.03,WUHU216DAVISVP2,2013-12-24 15:25:00,
2013-12-24 10:30:00,40.5,33.3,30.25,NNW,339,0.0,0.0,75,0.00,,,0.03,WUHU216DAVISVP2,2013-12-24 15:30:00,
2013-12-24 10:35:00,40.6,33.4,30.25,NW,326,0.0,0.0,75,0.00,,,0.03,WUHU216DAVISVP2,2013-12-24 15:35:00,
2013-12-24 10:41:00,40.6,33.4,30.25,NW,326,0.0,0.0,75,0.00,,,0.03,WUHU216DAVISVP2,2013-12-24 15:41:00,
2013-12-24 10:46:00,40.6,33.4,30.25,NNW,328,0.0,0.0,75,0.00,,,0.03,WUHU216DAVISVP2,2013-12-24 15:46:00,
2013-12-24 10:51:00,40.6,33.0,30.25,North,0,0.0,0.0,74,0.00,,,0.03,WUHU216DAVISVP2,2013-12-24 15:51:00,
2013-12-24 10:56:00,40.6,33.0,30.24,NW,320,0.0,0.0,74,0.00,,,0.03,WUHU216DAVISVP2,2013-12-24 15:56:00,
2013-12-24 11:01:00,40.9,33.3,30.24,NW,311,0.0,0.0,74,0.00,,,0.03,WUHU216DAVISVP2,2013-12-24 16:01:00,
2013-12-24 11:06:00,41.5,33.9,30.24,NNE,21,0.0,0.0,74,0.00,,,0.03,WUHU216DAVISVP2,2013-12-24 16:06:00,
2013-12-24 11:11:00,41.5,33.6,30.24,North,0,0.0,0.0,73,0.00,,,0.03,WUHU216DAVISVP2,2013-12-24 16:11:00,
2013-12-24 11:16:00,41.1,33.2,30.24,NNW,342,0.0,0.0,73,0.00,,,0.03,WUHU216DAVISVP2,2013-12-24 16:16:00,
2013-12-24 11:21:00,40.8,32.9,30.24,North,0,0.0,0.0,73,0.00,,,0.03,WUHU216DAVISVP2,2013-12-24 16:21:00,
2013-12-24 11:26:00,40.8,32.9,30.24,NW,309,0.0,0.0,73,0.00,,,0.03,WUHU216DAVISVP2,2013-12-24 16:26:00,
2013-12-24 11:31:00,41.1,33.2,30.24,North,4,0.0,0.0,73,0.00,,,0.03,WUHU216DAVISVP2,2013-12-24 16:31:00,
2013-12-24 11:36:00,41.2,33.3,30.24,NNE,13,0.0,0.0,73,0.00,,,0.03,WUHU216DAVISVP2,2013-12-24 16:36:00,
2013-12-24 11:41:00,41.2,33.3,30.24,WNW,282,0.0,0.0,73,0.00,,,0.03,WUHU216DAVISVP2,2013-12-24 16:41:00,
2013-12-24 11:46:00,41.2,33.3,30.24,West,268,0.0,0.0,73,0.00,,,0.03,WUHU216DAVISVP2,2013-12-24 16:46:00,
2013-12-24 11:51:00,41.2,32.9,30.24,NW,323,0.0,0.0,72,0.00,,,0.03,WUHU216DAVISVP2,2013-12-24 16:51:00,
2013-12-24 11:56:00,41.5,33.2,30.24,NW,325,0.0,0.0,72,0.00,,,0.03,WUHU216DAVISVP2,2013-12-24 16:56:00,
2013-12-24 12:01:00,41.6,33.3,30.24,WNW,292,0.0,0.0,72,0.00,,,0.03,WUHU216DAVISVP2,2013-12-24 17:01:00,
2013-12-24 12:06:00,41.6,33.3,30.24,NW,319,0.0,0.0,72,0.00,,,0.03,WUHU216DAVISVP2,2013-12-24 17:06:00,
2013-12-24 12:11:00,41.6,33.3,30.23,NNW,344,0.0,0.0,72,0.00,,,0.03,WUHU216DAVISVP2,2013-12-24 17:11:00,
2013-12-24 12:16:00,41.8,33.2,30.23,NW,308,0.0,0.0,71,0.00,,,0.03,WUHU216DAVISVP2,2013-12-24 17:16:00,
2013-12-24 12:21:00,41.8,33.2,30.23,NW,316,0.0,0.0,71,0.00,,,0.03,WUHU216DAVISVP2,2013-12-24 17:21:00,
2013-12-24 12:26:00,41.8,33.2,30.23,NW,313,0.0,0.0,71,0.00,,,0.03,WUHU216DAVISVP2,2013-12-24 17:26:00,
2013-12-24 12:31:00,41.8,32.5,30.23,NW,306,0.0,0.0,69,0.00,,,0.03,WUHU216DAVISVP2,2013-12-24 17:31:00,
2013-12-24 12:36:00,42.9,33.5,30.23,North,356,0.0,0.0,69,0.00,,,0.03,WUHU216DAVISVP2,2013-12-24 17:36:00,
2013-12-24 12:41:00,43.1,33.7,30.22,North,359,0.0,0.0,69,0.00,,,0.03,WUHU216DAVISVP2,2013-12-24 17:41:00,
2013-12-24 12:47:00,43.3,33.5,30.22,North,4,0.0,0.0,68,0.00,,,0.03,WUHU216DAVISVP2,2013-12-24 17:47:00,
2013-12-24 12:52:00,43.3,33.5,30.22,North,352,0.0,0.0,68,0.00,,,0.03,WUHU216DAVISVP2,2013-12-24 17:52:00,
2013-12-24 12:57:00,43.8,34.0,30.22,North,357,0.0,0.0,68,0.00,,,0.03,WUHU216DAVISVP2,2013-12-24 17:57:00,
2013-12-24 13:02:00,44.1,34.3,30.22,NNW,344,0.0,0.0,68,0.00,,,0.03,WUHU216DAVISVP2,2013-12-24 18:02:00,
2013-12-24 13:07:00,44.2,34.4,30.22,NNW,330,0.0,0.0,68,0.00,,,0.03,WUHU216DAVISVP2,2013-12-24 18:07:00,
2013-12-24 13:12:00,44.3,34.5,30.22,WNW,295,0.0,0.0,68,0.00,,,0.03,WUHU216DAVISVP2,2013-12-24 18:12:00,
2013-12-24 13:17:00,44.5,33.6,30.22,North,6,0.0,0.0,65,0.00,,,0.03,WUHU216DAVISVP2,2013-12-24 18:17:00,
2013-12-24 13:22:00,44.6,33.3,30.22,North,0,0.0,0.0,64,0.00,,,0.03,WUHU216DAVISVP2,2013-12-24 18:22:00,
2013-12-24 13:27:00,44.9,33.5,30.21,North,354,0.0,0.0,64,0.00,,,0.03,WUHU216DAVISVP2,2013-12-24 18:27:00,
2013-12-24 13:32:00,44.8,33.1,30.21,North,350,0.0,0.0,63,0.00,,,0.03,WUHU216DAVISVP2,2013-12-24 18:32:00,
2013-12-24 13:37:00,44.8,33.1,30.21,NNW,333,0.0,0.0,63,0.00,,,0.03,WUHU216DAVISVP2,2013-12-24 18:37:00,
2013-12-24 13:42:00,44.9,33.2,30.22,NNW,333,0.0,0.0,63,0.00,,,0.03,WUHU216DAVISVP2,2013-12-24 18:42:00,
2013-12-24 13:47:00,44.9,33.2,30.22,NNW,329,0.0,0.0,63,0.00,,,0.03,WUHU216DAVISVP2,2013-12-24 18:47:00,
2013-12-24 13:52:00,44.2,31.7,30.22,NNW,343,0.0,0.0,61,0.00,,,0.03,WUHU216DAVISVP2,2013-12-24 18:52:00,
2013-12-24 13:57:00,44.2,32.1,30.22,NNW,342,0.0,0.0,62,0.00,,,0.03,WUHU216DAVISVP2,2013-12-24 18:57:00,
2013-12-24 14:02:00,44.2,32.1,30.22,WNW,285,0.0,0.0,62,0.00,,,0.03,WUHU216DAVISVP2,2013-12-24 19:02:00,
2013-12-24 14:07:00,44.9,32.8,30.22,North,356,0.0,0.0,62,0.00,,,0.03,WUHU216DAVISVP2,2013-12-24 19:07:00,
2013-12-24 14:12:00,44.9,32.8,30.22,WNW,302,0.0,0.0,62,0.00,,,0.03,WUHU216DAVISVP2,2013-12-24 19:12:00,
2013-12-24 14:17:00,44.9,32.8,30.22,North,7,0.0,0.0,62,0.00,,,0.03,WUHU216DAVISVP2,2013-12-24 19:17:00,
2013-12-24 14:22:00,44.9,31.9,30.22,NNW,344,0.0,0.0,60,0.00,,,0.03,WUHU216DAVISVP2,2013-12-24 19:22:00,
2013-12-24 14:28:00,44.9,31.9,30.22,NW,326,0.0,0.0,60,0.00,,,0.03,WUHU216DAVISVP2,2013-12-24 19:28:00,
2013-12-24 14:33:00,44.3,31.4,30.22,NNW,339,0.0,0.0,60,0.00,,,0.03,WUHU216DAVISVP2,2013-12-24 19:33:00,
2013-12-24 14:38:00,44.3,31.4,30.22,NNW,339,0.0,0.0,60,0.00,,,0.03,WUHU216DAVISVP2,2013-12-24 19:38:00,
2013-12-24 14:43:00,44.1,31.2,30.22,NNW,332,0.0,0.0,60,0.00,,,0.03,WUHU216DAVISVP2,2013-12-24 19:43:00,
2013-12-24 14:48:00,43.8,30.9,30.22,WNW,302,0.0,0.0,60,0.00,,,0.03,WUHU216DAVISVP2,2013-12-24 19:48:00,
2013-12-24 14:53:00,43.8,30.9,30.22,SSE,160,0.0,0.0,60,0.00,,,0.03,WUHU216DAVISVP2,2013-12-24 19:53:00,
2013-12-24 14:58:00,43.8,30.9,30.22,West,267,0.0,0.0,60,0.00,,,0.03,WUHU216DAVISVP2,2013-12-24 19:58:00,
2013-12-24 15:03:00,43.8,30.0,30.22,West,281,0.0,0.0,58,0.00,,,0.03,WUHU216DAVISVP2,2013-12-24 20:03:00,
2013-12-24 15:08:00,43.8,30.0,30.22,North,0,0.0,0.0,58,0.00,,,0.03,WUHU216DAVISVP2,2013-12-24 20:08:00,
2013-12-24 15:13:00,43.5,29.8,30.24,WNW,294,0.0,0.0,58,0.00,,,0.03,WUHU216DAVISVP2,2013-12-24 20:13:00,
2013-12-24 15:18:00,43.3,30.0,30.24,West,281,0.0,0.0,59,0.00,,,0.03,WUHU216DAVISVP2,2013-12-24 20:18:00,
2013-12-24 15:23:00,43.2,29.5,30.24,North,3,0.0,0.0,58,0.00,,,0.03,WUHU216DAVISVP2,2013-12-24 20:23:00,
2013-12-24 15:28:00,43.1,29.4,30.24,NNW,343,0.0,0.0,58,0.00,,,0.03,WUHU216DAVISVP2,2013-12-24 20:28:00,
2013-12-24 15:33:00,43.1,29.4,30.24,NNW,330,0.0,0.0,58,0.00,,,0.03,WUHU216DAVISVP2,2013-12-24 20:33:00,
2013-12-24 15:38:00,42.9,29.2,30.24,WNW,295,0.0,0.0,58,0.00,,,0.03,WUHU216DAVISVP2,2013-12-24 20:38:00,
2013-12-24 15:43:00,42.9,29.2,30.25,NW,323,0.0,0.0,58,0.00,,,0.03,WUHU216DAVISVP2,2013-12-24 20:43:00,
2013-12-24 15:48:00,42.9,28.8,30.25,NNW,340,0.0,0.0,57,0.00,,,0.03,WUHU216DAVISVP2,2013-12-24 20:48:00,
2013-12-24 15:53:00,42.8,28.7,30.25,NW,306,0.0,0.0,57,0.00,,,0.03,WUHU216DAVISVP2,2013-12-24 20:53:00,
2013-12-24 15:58:00,42.6,28.5,30.25,NE,34,0.0,0.0,57,0.00,,,0.03,WUHU216DAVISVP2,2013-12-24 20:58:00,
2013-12-24 16:04:00,42.5,28.4,30.25,NNW,337,0.0,0.0,57,0.00,,,0.03,WUHU216DAVISVP2,2013-12-24 21:04:00,
2013-12-24 16:09:00,42.3,28.2,30.25,North,350,0.0,0.0,57,0.00,,,0.03,WUHU216DAVISVP2,2013-12-24 21:09:00,
2013-12-24 16:14:00,42.2,28.1,30.26,WNW,288,0.0,0.0,57,0.00,,,0.03,WUHU216DAVISVP2,2013-12-24 21:14:00,
2013-12-24 16:19:00,42.2,28.1,30.26,NNE,13,0.0,0.0,57,0.00,,,0.03,WUHU216DAVISVP2,2013-12-24 21:19:00,
2013-12-24 16:24:00,42.1,28.0,30.26,North,0,0.0,0.0,57,0.00,,,0.03,WUHU216DAVISVP2,2013-12-24 21:24:00,
2013-12-24 16:29:00,41.8,27.7,30.26,NW,313,0.0,0.0,57,0.00,,,0.03,WUHU216DAVISVP2,2013-12-24 21:29:00,
2013-12-24 16:34:00,41.6,27.5,30.26,North,0,0.0,0.0,57,0.00,,,0.03,WUHU216DAVISVP2,2013-12-24 21:34:00,
2013-12-24 16:39:00,41.6,27.5,30.26,NW,306,0.0,0.0,57,0.00,,,0.03,WUHU216DAVISVP2,2013-12-24 21:39:00,
2013-12-24 16:44:00,41.3,27.2,30.27,North,6,0.0,0.0,57,0.00,,,0.03,WUHU216DAVISVP2,2013-12-24 21:44:00,
2013-12-24 16:49:00,41.2,27.2,30.27,North,0,0.0,0.0,57,0.00,,,0.03,WUHU216DAVISVP2,2013-12-24 21:49:00,
2013-12-24 16:54:00,41.2,27.2,30.27,NW,318,0.0,0.0,57,0.00,,,0.03,WUHU216DAVISVP2,2013-12-24 21:54:00,
2013-12-24 16:59:00,41.1,27.1,30.28,NW,318,0.0,0.0,57,0.00,,,0.03,WUHU216DAVISVP2,2013-12-24 21:59:00,
2013-12-24 17:04:00,40.8,26.8,30.28,North,0,0.0,0.0,57,0.00,,,0.03,WUHU216DAVISVP2,2013-12-24 22:04:00,
2013-12-24 17:09:00,40.8,26.8,30.28,North,0,0.0,0.0,57,0.00,,,0.03,WUHU216DAVISVP2,2013-12-24 22:09:00,
2013-12-24 17:14:00,40.2,26.2,30.28,North,0,0.0,0.0,57,0.00,,,0.03,WUHU216DAVISVP2,2013-12-24 22:14:00,
2013-12-24 17:19:00,40.1,26.1,30.28,North,0,0.0,0.0,57,0.00,,,0.03,WUHU216DAVISVP2,2013-12-24 22:19:00,
2013-12-24 17:24:00,40.1,26.1,30.28,North,0,0.0,0.0,57,0.00,,,0.03,WUHU216DAVISVP2,2013-12-24 22:24:00,
2013-12-24 17:30:00,39.5,25.6,30.29,North,0,0.0,0.0,57,0.00,,,0.03,WUHU216DAVISVP2,2013-12-24 22:30:00,
2013-12-24 17:35:00,39.2,25.3,30.29,North,0,0.0,0.0,57,0.00,,,0.03,WUHU216DAVISVP2,2013-12-24 22:35:00,
2013-12-24 17:40:00,39.2,25.3,30.30,North,0,0.0,0.0,57,0.00,,,0.03,WUHU216DAVISVP2,2013-12-24 22:40:00,
2013-12-24 17:45:00,39.2,25.3,30.30,North,0,0.0,0.0,57,0.00,,,0.03,WUHU216DAVISVP2,2013-12-24 22:45:00,
2013-12-24 17:50:00,38.6,24.7,30.30,NNW,333,0.0,0.0,57,0.00,,,0.03,WUHU216DAVISVP2,2013-12-24 22:50:00,
2013-12-24 17:55:00,38.6,26.0,30.31,WNW,287,0.0,0.0,60,0.00,,,0.03,WUHU216DAVISVP2,2013-12-24 22:55:00,
2013-12-24 18:00:00,38.6,26.0,30.31,WNW,287,0.0,0.0,60,0.00,,,0.03,WUHU216DAVISVP2,2013-12-24 23:00:00,
2013-12-24 18:05:00,38.2,25.2,30.31,NW,311,0.0,0.0,59,0.00,,,0.03,WUHU216DAVISVP2,2013-12-24 23:05:00,
2013-12-24 18:10:00,38.3,24.4,30.31,NNW,335,0.0,0.0,57,0.00,,,0.03,WUHU216DAVISVP2,2013-12-24 23:10:00,
2013-12-24 18:15:00,38.5,24.6,30.31,North,357,0.0,0.0,57,0.00,,,0.03,WUHU216DAVISVP2,2013-12-24 23:15:00,
2013-12-24 18:20:00,38.3,24.4,30.31,NNW,340,0.0,0.0,57,0.00,,,0.03,WUHU216DAVISVP2,2013-12-24 23:20:00,
2013-12-24 18:25:00,38.3,24.0,30.32,NNW,330,0.0,0.0,56,0.00,,,0.03,WUHU216DAVISVP2,2013-12-24 23:25:00,
2013-12-24 18:30:00,38.3,24.0,30.32,NW,326,0.0,0.0,56,0.00,,,0.03,WUHU216DAVISVP2,2013-12-24 23:30:00,
2013-12-24 18:35:00,38.0,23.7,30.32,NNW,336,0.0,0.0,56,0.00,,,0.03,WUHU216DAVISVP2,2013-12-24 23:35:00,
2013-12-24 18:40:00,38.0,23.7,30.33,NW,326,0.0,0.0,56,0.00,,,0.03,WUHU216DAVISVP2,2013-12-24 23:40:00,
2013-12-24 18:45:00,38.0,23.7,30.33,NW,319,0.0,0.0,56,0.00,,,0.03,WUHU216DAVISVP2,2013-12-24 23:45:00,
2013-12-24 18:50:00,38.0,23.3,30.33,NNW,336,0.0,0.0,55,0.00,,,0.03,WUHU216DAVISVP2,2013-12-24 23:50:00,
2013-12-24 18:55:00,38.0,23.3,30.34,NNW,336,0.0,0.0,55,0.00,,,0.03,WUHU216DAVISVP2,2013-12-24 23:55:00,
2013-12-24 19:00:00,37.8,23.1,30.34,WNW,302,0.0,0.0,55,0.00,,,0.00,WUHU216DAVISVP2,2013-12-25 00:00:00,
2013-12-24 19:05:00,37.8,23.1,30.34,North,354,0.0,0.0,55,0.00,,,0.00,WUHU216DAVISVP2,2013-12-25 00:05:00,
2013-12-24 19:10:00,37.3,22.6,30.35,North,0,0.0,0.0,55,0.00,,,0.00,WUHU216DAVISVP2,2013-12-25 00:10:00,
2013-12-24 19:15:00,37.3,22.6,30.35,NNW,340,0.0,0.0,55,0.00,,,0.00,WUHU216DAVISVP2,2013-12-25 00:15:00,
2013-12-24 19:20:00,37.0,22.3,30.35,North,354,0.0,0.0,55,0.00,,,0.00,WUHU216DAVISVP2,2013-12-25 00:20:00,
2013-12-24 19:25:00,37.0,22.3,30.36,NNW,342,0.0,0.0,55,0.00,,,0.00,WUHU216DAVISVP2,2013-12-25 00:25:00,
2013-12-24 19:30:00,36.6,22.0,30.36,NW,325,0.0,0.0,55,0.00,,,0.00,WUHU216DAVISVP2,2013-12-25 00:30:00,
2013-12-24 19:35:00,36.5,22.3,30.36,North,359,0.0,0.0,56,0.00,,,0.00,WUHU216DAVISVP2,2013-12-25 00:35:00,
2013-12-24 19:40:00,36.5,22.3,30.36,North,11,0.0,0.0,56,0.00,,,0.00,WUHU216DAVISVP2,2013-12-25 00:40:00,
2013-12-24 19:45:00,36.2,22.0,30.36,NNE,18,0.0,0.0,56,0.00,,,0.00,WUHU216DAVISVP2,2013-12-25 00:45:00,
2013-12-24 19:50:00,35.9,21.7,30.36,North,0,0.0,0.0,56,0.00,,,0.00,WUHU216DAVISVP2,2013-12-25 00:50:00,
2013-12-24 19:55:00,35.9,21.7,30.37,NW,318,0.0,0.0,56,0.00,,,0.00,WUHU216DAVISVP2,2013-12-25 00:55:00,
2013-12-24 20:00:00,35.6,21.5,30.37,North,0,0.0,0.0,56,0.00,,,0.00,WUHU216DAVISVP2,2013-12-25 01:00:00,
2013-12-24 20:05:00,35.3,20.7,30.37,WNW,299,0.0,0.0,55,0.00,,,0.00,WUHU216DAVISVP2,2013-12-25 01:05:00,
2013-12-24 20:10:00,35.3,20.7,30.38,NNW,347,0.0,0.0,55,0.00,,,0.00,WUHU216DAVISVP2,2013-12-25 01:10:00,
2013-12-24 20:15:00,35.0,20.5,30.38,NW,322,0.0,0.0,55,0.00,,,0.00,WUHU216DAVISVP2,2013-12-25 01:15:00,
2013-12-24 20:20:00,34.7,20.2,30.38,WNW,298,0.0,0.0,55,0.00,,,0.00,WUHU216DAVISVP2,2013-12-25 01:20:00,
2013-12-24 20:25:00,34.4,19.5,30.38,NW,318,0.0,0.0,54,0.00,,,0.00,WUHU216DAVISVP2,2013-12-25 01:25:00,
2013-12-24 20:30:00,34.3,19.4,30.38,NNE,16,0.0,0.0,54,0.00,,,0.00,WUHU216DAVISVP2,2013-12-25 01:30:00,
2013-12-24 20:35:00,34.3,19.4,30.38,North,11,0.0,0.0,54,0.00,,,0.00,WUHU216DAVISVP2,2013-12-25 01:35:00,
2013-12-24 20:40:00,34.0,19.1,30.39,NNW,346,0.0,0.0,54,0.00,,,0.00,WUHU216DAVISVP2,2013-12-25 01:40:00,
2013-12-24 20:45:00,33.8,18.9,30.39,NW,320,0.0,0.0,54,0.00,,,0.00,WUHU216DAVISVP2,2013-12-25 01:45:00,
2013-12-24 20:50:00,33.8,18.9,30.39,North,359,0.0,0.0,54,0.00,,,0.00,WUHU216DAVISVP2,2013-12-25 01:50:00,
2013-12-24 20:55:00,33.4,18.5,30.39,North,359,0.0,0.0,54,0.00,,,0.00,WUHU216DAVISVP2,2013-12-25 01:55:00,
2013-12-24 21:00:00,33.2,18.3,30.39,NW,320,0.0,0.0,54,0.00,,,0.00,WUHU216DAVISVP2,2013-12-25 02:00:00,
2013-12-24 21:05:00,33.1,17.8,30.39,NNW,336,0.0,0.0,53,0.00,,,0.00,WUHU216DAVISVP2,2013-12-25 02:05:00,
2013-12-24 21:10:00,32.9,17.6,30.40,NNW,342,0.0,0.0,53,0.00,,,0.00,WUHU216DAVISVP2,2013-12-25 02:10:00,
2013-12-24 21:15:00,32.8,17.5,30.40,NW,323,0.0,0.0,53,0.00,,,0.00,WUHU216DAVISVP2,2013-12-25 02:15:00,
2013-12-24 21:20:00,32.5,17.2,30.40,North,350,0.0,0.0,53,0.00,,,0.00,WUHU216DAVISVP2,2013-12-25 02:20:00,
2013-12-24 21:26:00,32.2,17.0,30.40,WSW,257,0.0,0.0,53,0.00,,,0.00,WUHU216DAVISVP2,2013-12-25 02:26:00,
2013-12-24 21:31:00,32.1,16.9,30.40,WNW,284,0.0,0.0,53,0.00,,,0.00,WUHU216DAVISVP2,2013-12-25 02:31:00,
2013-12-24 21:36:00,32.1,16.9,30.40,North,10,0.0,0.0,53,0.00,,,0.00,WUHU216DAVISVP2,2013-12-25 02:36:00,
2013-12-24 21:41:00,31.8,16.6,30.41,North,0,0.0,0.0,53,0.00,,,0.00,WUHU216DAVISVP2,2013-12-25 02:41:00,
2013-12-24 21:47:00,31.5,16.3,30.41,NW,305,0.0,0.0,53,0.00,,,0.00,WUHU216DAVISVP2,2013-12-25 02:47:00,
2013-12-24 21:52:00,31.3,16.6,30.41,NNW,342,0.0,0.0,54,0.00,,,0.00,WUHU216DAVISVP2,2013-12-25 02:52:00,
2013-12-24 21:58:00,31.2,16.5,30.42,North,356,0.0,0.0,54,0.00,,,0.00,WUHU216DAVISVP2,2013-12-25 02:58:00,
2013-12-24 22:03:00,30.9,16.2,30.42,SW,229,0.0,0.0,54,0.00,,,0.00,WUHU216DAVISVP2,2013-12-25 03:03:00,
2013-12-24 22:08:00,30.9,16.2,30.42,SW,229,0.0,0.0,54,0.00,,,0.00,WUHU216DAVISVP2,2013-12-25 03:08:00,
2013-12-24 22:13:00,30.6,15.9,30.42,North,349,0.0,0.0,54,0.00,,,0.00,WUHU216DAVISVP2,2013-12-25 03:13:00,
2013-12-24 22:18:00,30.6,15.9,30.42,North,350,0.0,0.0,54,0.00,,,0.00,WUHU216DAVISVP2,2013-12-25 03:18:00,
2013-12-24 22:23:00,30.3,15.6,30.42,North,7,0.0,0.0,54,0.00,,,0.00,WUHU216DAVISVP2,2013-12-25 03:23:00,
2013-12-24 22:28:00,30.3,16.0,30.43,North,6,0.0,0.0,55,0.00,,,0.00,WUHU216DAVISVP2,2013-12-25 03:28:00,
2013-12-24 22:33:00,30.0,15.8,30.43,North,0,0.0,0.0,55,0.00,,,0.00,WUHU216DAVISVP2,2013-12-25 03:33:00,
2013-12-24 22:38:00,30.0,15.8,30.43,North,0,0.0,0.0,55,0.00,,,0.00,WUHU216DAVISVP2,2013-12-25 03:38:00,
2013-12-24 22:43:00,29.8,15.6,30.43,North,0,0.0,0.0,55,0.00,,,0.00,WUHU216DAVISVP2,2013-12-25 03:43:00,
2013-12-24 22:48:00,29.5,15.3,30.43,North,0,0.0,0.0,55,0.00,,,0.00,WUHU216DAVISVP2,2013-12-25 03:48:00,
2013-12-24 22:53:00,29.4,15.6,30.43,North,0,0.0,0.0,56,0.00,,,0.00,WUHU216DAVISVP2,2013-12-25 03:53:00,
2013-12-24 22:58:00,29.4,15.6,30.43,North,0,0.0,0.0,56,0.00,,,0.00,WUHU216DAVISVP2,2013-12-25 03:58:00,
2013-12-24 23:03:00,29.3,15.5,30.43,North,0,0.0,0.0,56,0.00,,,0.00,WUHU216DAVISVP2,2013-12-25 04:03:00,
2013-12-24 23:08:00,29.1,15.4,30.43,North,0,0.0,0.0,56,0.00,,,0.00,WUHU216DAVISVP2,2013-12-25 04:08:00,
2013-12-24 23:13:00,29.0,15.7,30.43,North,0,0.0,0.0,57,0.00,,,0.00,WUHU216DAVISVP2,2013-12-25 04:13:00,
2013-12-24 23:18:00,29.0,15.7,30.43,North,0,0.0,0.0,57,0.00,,,0.00,WUHU216DAVISVP2,2013-12-25 04:18:00,
2013-12-24 23:23:00,29.0,15.7,30.43,North,0,0.0,0.0,57,0.00,,,0.00,WUHU216DAVISVP2,2013-12-25 04:23:00,
2013-12-24 23:28:00,29.0,15.7,30.44,North,0,0.0,0.0,57,0.00,,,0.00,WUHU216DAVISVP2,2013-12-25 04:28:00,
2013-12-24 23:33:00,29.0,15.7,30.44,North,0,0.0,0.0,57,0.00,,,0.00,WUHU216DAVISVP2,2013-12-25 04:33:00,
2013-12-24 23:38:00,29.0,15.7,30.44,North,0,0.0,0.0,57,0.00,,,0.00,WUHU216DAVISVP2,2013-12-25 04:38:00,
2013-12-24 23:43:00,28.4,15.1,30.44,North,0,0.0,0.0,57,0.00,,,0.00,WUHU216DAVISVP2,2013-12-25 04:43:00,
2013-12-24 23:48:00,28.2,15.7,30.44,North,0,0.0,0.0,59,0.00,,,0.00,WUHU216DAVISVP2,2013-12-25 04:48:00,
2013-12-24 23:53:00,28.1,15.6,30.44,North,0,0.0,0.0,59,0.00,,,0.00,WUHU216DAVISVP2,2013-12-25 04:53:00,
2013-12-24 23:58:00,27.9,15.5,30.44,North,0,0.0,0.0,59,0.00,,,0.00,WUHU216DAVISVP2,2013-12-25 04:58:00,